Hourly Weather Roundup
Issued by NWS Central Illinois

Home | Current Version | Previous Version | Text Only | Print | Product List | Glossary On
Versions: 1 2 3 4 5 6 7 8 9 10 11 12 13 14 15 16 17 18 19 20 21 22 23 24 25 26 27 28 29 30 31 32 33 34 35 36 37 38 39 40 41 42 43 44 45 46 47 48 49 50
000
NZUS43 KILX 301010
HWRILX

AREA WEATHER ROUNDUP
NATIONAL WEATHER SERVICE, LINCOLN IL
500 AM CDT SAT AUG 30 2014


CITY           SKY/WX    TMP DP  RH WIND       PRES   REMARKS
BLOOMINGTON    CLOUDY    71  68  90 S13       29.91R
CHAMPAIGN      LGT RAIN  72  69  90 S9        29.93S
DECATUR        CLOUDY    73  69  87 S12       29.92S
FLORA          RAIN      72  69  88 S7        29.97S
GALESBURG      PTCLDY    70  69  96 SW6       29.85F
JACKSONVILLE   MOCLDY    73  71  93 SW6       29.91R
LACON          PTCLDY    71  68  92 SW8       29.86R
LAWRENCEVILLE  CLOUDY    73  70  90 S6        29.98S
LITCHFIELD     CLOUDY    70  69  95 S6        29.93S
$$


CITY           SKY/WX    TMP DP  RH WIND       PRES   REMARKS
LINCOLN        CLOUDY    73  70  89 S5        29.87S
MACOMB         LGT RAIN  71  69  92 SW10      29.86F
MATTOON        LGT RAIN  72  68  87 S8        29.94S
MT CARMEL AP   CLOUDY    77  70  78 S7        29.98R
OLNEY-NOBLE AP CLOUDY    72  68  88 CALM      29.98R
PARIS          CLOUDY    73  69  88 S6        29.96R
PEORIA         LGT RAIN  73  69  87 SW12      29.87R
PONTIAC        CLOUDY    73  72  94 S9        29.87S
RANTOUL        CLOUDY    74  68  80 SW10      29.93R
ROBINSON       CLOUDY    74  70  87 S6        29.98R
SPRINGFIELD    CLOUDY    74  69  85 S7        29.90S
TAYLORVILLE    CLOUDY    70  68  94 S7        29.92S
$$

...REGIONAL REPORTS...


CITY           SKY/WX    TMP DP  RH WIND       PRES   REMARKS
CHICAGO O`HARE CLOUDY    74  67  78 SW9       29.83F
KANKAKEE       CLOUDY    72  70  93 S9        29.89S
MOLINE         MOCLDY    69  67  93 W5        29.83S
MOUNT VERNON   CLOUDY    73  66  78 S5        29.98S
PITTSFIELD     PTCLDY    72  68  89 S6        29.91S
QUINCY         MOCLDY    70  66  87 S7        29.86F
ROCKFORD       MOCLDY    70  67  90 S8        29.83S
$$


CITY           SKY/WX    TMP DP  RH WIND       PRES   REMARKS
BURLINGTON     MOCLDY    71  69  93 SW8       29.82F
CEDAR RAPIDS   CLOUDY    66  66 100 S10       29.80R
DES MOINES     PTCLDY    67  64  90 SW5       29.83R
KIRKSVILLE     PTCLDY    68  66  93 SW6       29.87S
OTTUMWA        PTCLDY    67  66  97 SW8       29.83S
ST LOUIS       CLOUDY    77  67  71 SW8       29.93S
$$


CITY           SKY/WX    TMP DP  RH WIND       PRES   REMARKS
TERRE HAUTE    CLOUDY    73  67  81 S7        29.97R
EVANSVILLE     CLOUDY    75  67  76 CALM      30.00S
INDIANAPOLIS   MOCLDY    72  63  73 S8        29.97S
LAFAYETTE      CLOUDY    72  67  84 S7        29.93S
MADISON        CLOUDY    72  68  87 SW7       29.78S
MILWAUKEE      CLOUDY    74  68  81 SW14      29.80S
$$





USA.gov is the U.S. government's official web portal to all federal, state and local government web resources and services.